Home   Weather   Las Cruces   Past weeks

Flag for USA Past Weather in Las Cruces, New Mexico, USA — Yesterday and Last 2 Weeks

Now
72 °F

Scattered clouds.


Feels Like: 77 °F
Forecast: 60 / 82 °F
Wind: 9 mph from Southeast

Location: Las Cruces International

Current Time: Sep 29, 2016 at 9:32:02 AM

Latest Report: Sep 29, 2016 at 8:55 AM


Visibility: 10 mi

Pressure: 30.35 "Hg (26.46 "Hg at 1187m altitude)

Humidity: 52%

Dew Point: 54 °F

Location of Las CrucesLocation

Past Weather in Las Cruces — Graph

°F

Las Cruces Temperature Yesterday

Maximum temperature yesterday: 79 °F (at 3:15 PM)
Minimum temperature yesterday: 54 °F (at 6:35 AM)
Average temperature yesterday: 68 °F

High & Low Weather Summary for the Past Weeks

 TemperatureHumidityPressure
High94 °F (Sep 21, 3:15 PM)97% (Sep 27, 1:35 AM)30.36 "Hg (Sep 27, 1:35 AM)
Low51 °F (Sep 27, 2:55 AM)9% (Sep 18, 4:35 PM)29.94 "Hg (Sep 22, 4:35 PM)
Average72 °F39%30.14 "Hg
* Reported Sep 14 8:15 AM — Sep 29 8:15 AM, Las Cruces, Weather by CustomWeather, © 2016

Note: Actual official high and low records may vary slightly from our data, if they occured in-between our weather recording intervals... More about our weather records

Advertising

Las Cruces Weather History for the Previous 24 Hours

Scroll right to see more
 ConditionsComfort  
Time TempWeatherWind HumidityBarometerVisibility
8:15 AM
Thu, Sep 29
70 °FScattered clouds.5 mph59%30.33 "Hg10 mi
7:55 AM68 °FSunny.No wind67%30.33 "Hg10 mi
7:15 AM62 °FSunny.3 mph77%30.32 "Hg10 mi
6:55 AM62 °FClear.5 mph79%30.31 "Hg10 mi
6:35 AM62 °FClear.5 mph77%30.31 "Hg10 mi
6:15 AM63 °FClear.3 mph74%30.30 "Hg10 mi
5:55 AM64 °FClear.5 mph72%30.31 "Hg10 mi
5:35 AM64 °FClear.6 mph72%30.31 "Hg10 mi
5:15 AM64 °FClear.6 mph72%30.30 "Hg10 mi
4:55 AM64 °FClear.6 mph72%30.29 "Hg10 mi
4:15 AM65 °FPassing clouds.5 mph69%30.29 "Hg10 mi
3:55 AM65 °FClear.5 mph69%30.29 "Hg10 mi
3:15 AM66 °FClear.5 mph68%30.28 "Hg10 mi
2:55 AM66 °FClear.5 mph67%30.28 "Hg10 mi
2:35 AM66 °FClear.3 mph68%30.28 "Hg10 mi
2:15 AM67 °FClear.5 mph65%30.28 "Hg10 mi
1:55 AM66 °FClear.5 mph66%30.28 "Hg10 mi
1:15 AM67 °FClear.5 mph63%30.28 "Hg10 mi
12:55 AM68 °FClear.6 mph60%30.28 "Hg10 mi
12:35 AM68 °FClear.6 mph60%30.28 "Hg10 mi
12:15 AM68 °FClear.5 mph59%30.28 "Hg10 mi
11:55 PM
Wed, Sep 28
69 °FClear.3 mph57%30.27 "Hg10 mi
11:15 PM68 °FClear.5 mph61%30.26 "Hg10 mi
10:55 PM69 °FClear.3 mph58%30.25 "Hg10 mi
10:35 PM69 °FClear.5 mph58%30.25 "Hg10 mi
10:15 PM70 °FClear.3 mph58%30.24 "Hg10 mi
9:55 PM70 °FClear.No wind57%30.24 "Hg10 mi
9:35 PM69 °FClear.No wind66%30.23 "Hg10 mi
9:15 PM70 °FClear.No wind67%30.23 "Hg10 mi
8:55 PM70 °FClear.No wind62%30.23 "Hg10 mi
8:35 PM71 °FClear.3 mph61%30.21 "Hg10 mi
8:15 PM70 °FClear.3 mph62%30.21 "Hg10 mi
7:55 PM71 °FClear.No wind59%30.21 "Hg10 mi
7:15 PM74 °FClear.No wind52%30.22 "Hg10 mi
6:55 PM76 °FClear.No wind44%30.21 "Hg10 mi
6:35 PM77 °FSunny.No wind40%30.22 "Hg10 mi
6:15 PM78 °FSunny.3 mph36%30.21 "Hg10 mi
5:55 PM78 °FSunny.5 mph35%30.21 "Hg10 mi
5:35 PM78 °FSunny.3 mph35%30.21 "Hg10 mi
5:15 PM78 °FSunny.3 mph36%30.21 "Hg10 mi
4:55 PM78 °FSunny.No wind36%30.21 "Hg10 mi
4:35 PM79 °FSunny.6 mph36%30.21 "Hg10 mi
4:15 PM78 °FSunny.3 mph37%30.22 "Hg10 mi
3:55 PM79 °FSunny.5 mph36%30.21 "Hg10 mi
3:35 PM79 °FSunny.6 mph36%30.21 "Hg10 mi
3:15 PM79 °FSunny.6 mph35%30.21 "Hg10 mi
2:55 PM79 °FSunny.7 mph37%30.21 "Hg10 mi
2:35 PM76 °FSunny.No wind39%30.22 "Hg10 mi
2:15 PM77 °FSunny.3 mph40%30.23 "Hg10 mi
1:55 PM76 °FSunny.3 mph41%30.23 "Hg10 mi
1:35 PM77 °FSunny.3 mph38%30.23 "Hg10 mi
1:15 PM77 °FSunny.5 mph40%30.24 "Hg10 mi
12:55 PM76 °FSunny.7 mph41%30.25 "Hg10 mi
12:35 PM76 °FSunny.7 mph40%30.26 "Hg10 mi
12:15 PM75 °FSunny.5 mph44%30.25 "Hg10 mi
11:55 AM74 °FSunny.3 mph46%30.26 "Hg10 mi
11:15 AM72 °FSunny.3 mph49%30.27 "Hg10 mi
10:55 AM71 °FSunny.No wind50%30.27 "Hg10 mi
10:15 AM69 °FSunny.3 mph56%30.27 "Hg10 mi
9:55 AM67 °FSunny.5 mph58%30.27 "Hg10 mi
9:35 AM67 °FSunny.5 mph57%30.27 "Hg10 mi
9:15 AM67 °FSunny.7 mph57%30.26 "Hg10 mi
Weather by CustomWeather, © 2016

See weather overviewHow to use our weather pages